Location: Tel Aviv-Yafo
(32.0853°N, 34.7818°E)
Time: 20:40:46
(UTC+02:00)

BlueWalker 3 - Pass Details

Date: 21 January 2026
Orbit: 450 x 461 km, 53.2° (Epoch: 9 February)

Event Time Altitude Azimuth Distance (km) Brightness Sun altitude
Rises 17:43:37 0° 231° (SW) 2,444 6.9 -8.6°
Reaches altitude 10° 17:45:46 10° 236° (SW) 1,574 5.9 -9.1°
Maximum altitude 17:49:15 56° 315° (NW) 541 2.3 -9.8°
Drops below altitude 10° 17:52:45 10° 34° (NE) 1,578 4.0 -10.5°
Enters shadow 17:52:49 10° 35° (NE) 1,607 4.0 -10.5°
